Location: Glendale
(37.4556°N, 88.6714°W)
Time: 21:09:20
(UTC+00:00)

SL-16 R/B - Pass Details

Date: 08 December 2019
Orbit: 840 x 849 km, 71.0° (Epoch: 21 January)

Event Time Altitude Azimuth Distance (km) Brightness Sun altitude
Exits shadow 11:34:24 24° 278° (W) 1,689 3.2 -15.9°
Maximum altitude 11:35:36 26° 258° (WSW) 1,615 3.2 -15.6°
Drops below altitude 10° 11:40:11 10° 204° (SSW) 2,462 4.6 -14.8°
Sets 11:42:59 0° 192° (SSW) 3,391 5.4 -14.2°
